• MPC Preparation (Info)

  • MPEC 2012-V65 : 2012 VB37

    The following Minor Planet Electronic Circular may be linked-to from your own Web pages, but must not otherwise be redistributed electronically.

    A form allowing access to any MPEC is at the bottom of this page.


    Read MPEC 2012-V64 Read MPEC 2012-V66


    M.P.E.C. 2012-V65                                Issued 2012 Nov. 11, 09:00 UT
    
         The Minor Planet Electronic Circulars contain information on unusual
             minor planets and routine data on comets.  They are published
       on behalf of Commission 20 of the International Astronomical Union by the
              Minor Planet Center, Smithsonian Astrophysical Observatory,
                              Cambridge, MA 02138, U.S.A.
    
                 Prepared using the Tamkin Foundation Computer Network
    
                                  MPC@CFA.HARVARD.EDU
                URL https://www.minorplanetcenter.net/    ISSN 1523-6714
    
                                       2012 VB37
    
    Observations:
         K12V37B* C2012 11 07.36756 06 54 44.13 +49 41 15.9          19.1  cEV065704
         K12V37B  C2012 11 07.38239 06 54 47.52 +49 37 10.9          19.3  cEV065704
         K12V37B  C2012 11 07.39726 06 54 50.74 +49 33 05.6          19.4  cEV065704
         K12V37B  C2012 11 07.41194 06 54 53.76 +49 29 01.9          20.0  cEV065704
         K12V37B  C2012 11 07.42685 06 54 56.85 +49 24 52.7          19.9  cEV065704
         K12V37B  C2012 11 08.36555 07 00 46.60 +45 18 44.9          19.4  cEV065704
         K12V37B  C2012 11 08.38044 07 00 48.57 +45 15 22.5          19.8  cEV065704
         K12V37B  C2012 11 08.39510 07 00 50.19 +45 12 01.0          19.7  cEV065704
         K12V37B  C2012 11 08.40962 07 00 51.78 +45 08 41.3          19.7  cEV065704
         K12V37B KC2012 11 10.95385 07 09 31.54 +36 58 21.9                uEV065J95
         K12V37B KC2012 11 10.96014 07 09 32.20 +36 57 29.8                uEV065J95
         K12V37B KC2012 11 10.96704 07 09 32.81 +36 56 30.9          19.9 RuEV065J95
    
    Observer details:
    704 Lincoln Laboratory ETS, New Mexico.  Observers M. Blythe, G. Spitz,
        R. Brungard, J. Paige, P. Festler, T. McVey, A. Valdivia, C. Gall.  1.0-m
        f/2.15 reflector + CCD.
    J95 Great Shefford.  Observer P. Birtwhistle.  0.40-m f/6.0 Schmidt-Cassegrain
        + CCD.
    
    Orbital elements:
    2012 VB37                                                Earth MOID = 0.0131 AU
    Epoch 2012 Sept. 30.0 TT = JDT 2456200.5                MPC
    M 344.34968              (2000.0)            P               Q
    n   0.56182110     Peri.  149.58290     +0.82816486     -0.55986465
    a   1.4545791      Node   244.48649     +0.50817464     +0.76987687
    e   0.3151596      Incl.    1.67337     +0.23643497     +0.30633509
    P   1.75           H   25.2           G   0.15           U   8
    Residuals in seconds of arc
    121107 704  0.5-  0.6+    121107 704  0.3+  0.4+    121108 704  0.5+  0.3+
    121107 704  0.4-  0.9-    121108 704  0.2+  0.1+    121110 J95  0.0   0.4-
    121107 704  0.4-  0.5-    121108 704  1.3+  0.4+    121110 J95  0.3+  0.5+
    121107 704  0.7-  0.0     121108 704  0.4+  0.2-    121110 J95  0.5-  0.1-
    
    Ephemeris:
    2012 VB37                a,e,i = 1.45, 0.32, 2                   q = 0.9962
    Date    TT    R. A. (2000) Decl.     Delta      r     Elong.  Phase     V
    2012 10 12    19 44 56.5 +03 42 01   0.05293 1.0078    99.2    77.8    21.6
    ...
    2012 10 27    20 05 05.0 +32 30 31   0.01939 0.9962    96.6    82.3    19.5
    ...
    2012 11 04    05 42 36.9 +71 25 45   0.01460 0.9986   117.6    61.6    18.2
    ...
    2012 11 10    07 06 48.7 +39 39 16   0.02528 1.0042   122.7    56.0    19.3
    2012 11 11    07 09 21.3 +36 54 16   0.02748 1.0054   123.4    55.3    19.4
    2012 11 12    07 11 15.2 +34 33 53   0.02974 1.0068   124.0    54.6    19.6
    ...
    2012 11 18    07 15 39.9 +25 45 08   0.04397 1.0166   128.8    49.3    20.3
    ...
    2012 11 26    07 13 54.2 +20 22 21   0.06396 1.0343   136.6    40.9    20.9
    ...
    2012 12 11    07 01 42.6 +16 35 15   0.1048  1.0796   153.7    23.9    21.6
    
    A. U. Tomatic                (C) Copyright 2012 MPC           M.P.E.C. 2012-V65
    

    Read MPEC 2012-V64 Read MPEC 2012-V66


    MPEC number:

    Enter an MPEC number in one of the following forms:

    • 1997-B01 (the full form)
    • J97B01 (the packed version of the full form)
    • B01 (the abbreviated form)